Bei Facebook empfehlenBei Twitter postenGoogle plusPinterest

Das Wetter im Erzgebirge am 05.01.2017

Wetter und Klima am 05.01.2017 Holzhau im Erzgebirge (630m ü.NN)
Letzte gemessene Temperatur und Uhrzeit der Messung23:45:00 Uhr-10.30 °C
Temperatur (Maximum / Höchstwert) und Uhrzeit der Messung00:00:00 Uhr-3.60 °C
Temperatur (Minimum / Tiefstwert) und Uhrzeit der Messung23:45:00-10.30 °C
Errechneter Absolutwert der Temperaturschwankungen zwischen Tmin und Tmax des Tages6.70 K
Errechnete Tagesmitteltemperatur-6.44792 °C
Gesamt - Niederschlag des Tages (in flüssiger Form)0.00 Liter / m²
Luftdruck (Maximum / Höchstwert) und Zeitpunkt der Messung23:15:00 Uhr1026.60 hPa
Luftdruck (Minimum / Tiefstwert) und Zeitpunkt der Messung00:00:00 Uhr1004.20 hPa
Errechneter Absolutwert der Luftdruckschwankungen des Tages22.40 hPa
Höchste gemessene Windgeschwindigkeit und Uhrzeit der Messung01:45:00 Uhr8.64 km/h
Errechnete Windhäufigkeit in Relation zu den Messwerten des Tages10.41667 %
Niedrigste Windkühle (Windchill) und Zeitpunkt der Messung23:45:00 Uhr-10.30 °C
Taupunkt (Maximum / Höchstwert) und Uhrzeit der Messung00:00:00 Uhr-4.80 °C
Taupunkt (Minimum / Tiefstwert) und Uhrzeit der Messung23:45:00-11.90 °C
Anzahl der automatisch eingelesenen Messwerte 96

Detaillierte Wetter- und Klima- Messwerte für den 05.01.2017 in Holzhau im Erzgebirge (630m ü.NN)
ZeitTemperaturLuftdruckRel. LuftfeuchteWindWindrichtungWindchillTaupunktNiederschlag l/m²
23:45:00-10.30 °C1026.50 hPa89.00 %-11.90 °C 
23:30:00-10.20 °C1026.40 hPa89.00 %-11.80 °C 
23:15:00-10.10 °C1026.60 hPa89.00 %-11.70 °C 
23:00:00-10.10 °C1026.40 hPa89.00 %-11.70 °C 
22:45:00-10.10 °C1025.90 hPa89.00 %-11.70 °C 
22:30:00-10.10 °C1025.70 hPa88.00 %-11.90 °C 
22:15:00-9.90 °C1025.70 hPa88.00 %-11.70 °C 
22:00:00-9.90 °C1025.60 hPa88.00 %-11.70 °C 
21:45:00-9.90 °C1025.50 hPa88.00 %-11.70 °C 
21:30:00-9.90 °C1025.20 hPa88.00 %-11.70 °C 
21:15:00-9.90 °C1025.00 hPa88.00 %-11.70 °C 
21:00:00-9.90 °C1024.70 hPa88.00 %-11.70 °C 
20:45:00-9.90 °C1024.60 hPa88.00 %-11.70 °C 
20:30:00-9.90 °C1024.60 hPa88.00 %-11.70 °C 
20:15:00-9.90 °C1024.20 hPa88.00 %-11.70 °C 
20:00:00-9.90 °C1024.00 hPa87.00 %-11.90 °C 
19:45:00-9.70 °C1023.90 hPa87.00 %-11.70 °C 
19:30:00-9.50 °C1023.60 hPa87.00 %-11.50 °C 
19:15:00-9.10 °C1023.40 hPa87.00 %-11.10 °C 
19:00:00-8.90 °C1023.10 hPa87.00 %-10.90 °C 
18:45:00-8.70 °C1023.00 hPa88.00 %-10.50 °C 
18:30:00-8.50 °C1022.60 hPa88.00 %-10.30 °C 
18:15:00-8.40 °C1022.40 hPa88.00 %-10.20 °C 
18:00:00-8.20 °C1022.10 hPa88.00 %-10.00 °C 
17:45:00-8.10 °C1021.90 hPa88.00 %-9.90 °C 
17:30:00-7.90 °C1021.80 hPa88.00 %-9.70 °C 
17:15:00-7.80 °C1021.40 hPa87.00 %-9.80 °C 
17:00:00-7.70 °C1021.30 hPa87.00 %-9.70 °C 
16:45:00-7.60 °C1021.30 hPa87.00 %-9.60 °C 
16:30:00-7.30 °C1020.70 hPa87.00 %-9.30 °C 
16:15:00-7.10 °C1020.70 hPa87.00 %-9.10 °C 
16:00:00-6.90 °C1020.10 hPa87.00 %-8.90 °C 
15:45:00-6.70 °C1019.70 hPa88.00 %-8.60 °C 
15:30:00-6.50 °C1019.40 hPa87.00 %-8.50 °C 
15:15:00-6.50 °C1019.10 hPa86.00 %-8.70 °C 
15:00:00-6.50 °C1019.20 hPa86.00 %-8.70 °C 
14:45:00-6.40 °C1019.00 hPa86.00 %-8.60 °C 
14:30:00-6.20 °C1018.70 hPa85.00 %-8.60 °C 
14:15:00-5.90 °C1018.30 hPa84.00 %-8.40 °C 
14:00:00-5.60 °C1018.10 hPa84.00 %-8.10 °C 
13:45:00-5.50 °C1017.90 hPa84.00 %-8.00 °C 
13:30:00-5.10 °C1017.80 hPa84.00 %-7.70 °C 
13:15:00-5.10 °C1017.60 hPa84.00 %-7.70 °C 
13:00:00-5.00 °C1017.40 hPa84.00 %-7.60 °C 
12:45:00-5.00 °C1017.10 hPa84.00 %-7.60 °C 
12:30:00-4.70 °C1016.80 hPa85.00 %-7.10 °C 
12:15:00-4.70 °C1016.80 hPa85.00 %-7.10 °C 
12:00:00-4.70 °C1016.50 hPa85.00 %-7.10 °C 
11:45:00-4.50 °C1016.50 hPa86.00 %-6.70 °C 
11:30:00-4.60 °C1016.30 hPa86.00 %-6.80 °C 
11:15:00-4.60 °C1016.00 hPa86.00 %-6.80 °C 
11:00:00-4.30 °C1015.80 hPa85.00 %-6.70 °C 
10:45:00-3.80 °C1015.80 hPa85.00 %-6.20 °C 
10:30:00-4.20 °C1015.50 hPa88.00 %-6.10 °C 
10:15:00-4.90 °C1015.10 hPa88.00 %-6.80 °C 
10:00:00-5.20 °C1014.80 hPa90.00 %-6.70 °C 
09:45:00-5.50 °C1014.40 hPa90.00 %-7.00 °C 
09:30:00-5.90 °C1014.30 hPa90.00 %-7.40 °C 
09:15:00-6.10 °C1013.90 hPa90.00 %-7.60 °C 
09:00:00-6.10 °C1013.80 hPa90.00 %-7.60 °C 
08:45:00-6.10 °C1013.30 hPa90.00 %-7.60 °C 
08:30:00-6.10 °C1013.20 hPa90.00 %-7.60 °C 
08:15:00-6.00 °C1012.90 hPa90.00 %-7.50 °C 
08:00:00-6.00 °C1012.50 hPa90.00 %-7.50 °C 
07:45:00-5.90 °C1012.20 hPa90.00 %-7.40 °C 
07:30:00-5.80 °C1011.60 hPa90.00 %-7.30 °C 
07:15:00-5.70 °C1011.20 hPa90.00 %-7.20 °C 
07:00:00-5.60 °C1011.20 hPa90.00 %-7.10 °C 
06:45:00-5.40 °C1010.60 hPa90.00 %-6.90 °C 
06:30:00-5.30 °C1010.50 hPa91.00 %-6.70 °C 
06:15:00-5.30 °C1010.20 hPa91.00 %-6.70 °C 
06:00:00-5.20 °C1010.00 hPa91.00 %-6.60 °C 
05:45:00-5.20 °C1009.70 hPa91.00 %-6.60 °C 
05:30:00-5.10 °C1009.50 hPa91.00 %-6.50 °C 
05:15:00-5.10 °C1008.90 hPa92.00 %-6.30 °C 
05:00:00-4.90 °C1008.80 hPa92.00 %-6.10 °C 
04:45:00-4.80 °C1008.40 hPa92.00 %-6.00 °C 
04:30:00-4.70 °C1008.00 hPa92.00 %-5.90 °C 
04:15:00-4.70 °C1007.80 hPa92.00 %-5.90 °C 
04:00:00-4.60 °C1007.20 hPa92.00 %-5.80 °C 
03:45:00-4.70 °C1007.10 hPa92.00 %-5.90 °C 
03:30:00-4.70 °C1007.00 hPa92.00 %-5.90 °C 
03:15:00-4.60 °C1006.80 hPa92.00 %-5.80 °C 
03:00:00-4.50 °C1006.70 hPa92.00 %-5.70 °C 
02:45:00-4.50 °C1006.20 hPa92.00 %3.96 km/hN-4.50 °C-5.70 °C 
02:30:00-4.50 °C1006.00 hPa92.00 %6.12 km/hN-7.30 °C-5.70 °C 
02:15:00-4.60 °C1005.90 hPa92.00 %1.80 km/hNNW-4.60 °C-5.80 °C 
02:00:00-4.60 °C1005.60 hPa92.00 %2.16 km/hNNW-4.60 °C-5.80 °C 
01:45:00-4.60 °C1005.20 hPa92.00 %8.64 km/hNW-8.40 °C-5.80 °C 
01:30:00-4.60 °C1005.20 hPa92.00 %-5.80 °C 
01:15:00-4.60 °C1005.00 hPa91.00 %6.12 km/hNNW-7.40 °C-6.00 °C 
01:00:00-4.20 °C1005.20 hPa92.00 %5.76 km/hNO-6.70 °C-5.40 °C 
00:45:00-4.10 °C1005.20 hPa93.00 %1.80 km/hNNO-4.10 °C-5.20 °C 
00:30:00-4.10 °C1004.80 hPa93.00 %-5.20 °C 
00:15:00-3.90 °C1004.50 hPa92.00 %3.60 km/hNNW-3.90 °C-5.10 °C 
00:00:00-3.60 °C1004.20 hPa92.00 %4.32 km/hN-3.60 °C-4.80 °C 

Permanenter Link zu dieser Seite: Wetter im Erzgebirge am 05.01.2017
Performance-Info: Die Erstellung der Seite / Statistik(en) / Tabelle(n) erforderte 5 Datenbankserver-Abfrage(n) und dauerte 72 Millisekunden. (Dieser Messwert ist von der Gesamt-Auslastung des Servers abhängig.)
Erzgebirge - Wetter | Erzgebirge - Wetter (Mobilgeräte) | Komplette Klimadatenbank